星链-3396 (STARLINK-3396 )

导读 | 星芒AI

STARLINK-3396 是 SpaceX Starlink 项目中的一颗低轨通信卫星,属于第三代 Starlink 卫星(也称为 v1.5 或 Block V)。它于 2023 年发射,旨在为全球用户提供高速互联网服务。该卫星采用先进推进系统和激光通信技术,提高网络效率和稳定性。作为 Starlink 卫星群的一部分,STARLINK-3396 运行在约 550 公里的轨道高度,支持广域覆盖和低延迟通信,助力偏远地区接入互联网。

基本信息
目录编号:
51129
目录名称:
STARLINK-3396
国际标识:
2022-005AB
轨道中心:
EARTH
卫星名称:
星链-3396
卫星全名:
星链-3396 (STARLINK-3396 )
卫星状态:
在轨 (已飞行1431 天)
发射日期:
2022-01-19 UTC
国别 :
美国 (US)
星等 :
--
轨道信息
数据来源 国际轨道数据 AOE轨道数据
星历时间 2025-12-20T11:23:08+0800
8小时前
查看轨道信息
2025-12-14T17:00:00+0800
6天前
查看轨道信息
半长轴 6917.858km 6917.936km
偏心率 0.0001297 0.0001456
轨道倾角 53.218° 53.218°
近地点辐角 91.376° 100.784°
升交点赤经 296.231° 322.120°
平近点角 268.738° 241.944°
近地点 538.823km 538.793km
远地点 540.619km 540.809km
周期 95.437分钟 95.439分钟
每日圈数 15.088475 15.08822
详细信息
固有亮度:
5
最大亮度:
2.5
卫星平台:
Starlink v1.5
覆盖范围:
全球
运营商:
太空探索技术公司
运营商所在国:
美国
制造商(研发单位):
太空探索技术公司
制造商所在国:
美国
使用方式:
暂无
卫星简介
星链(Starlink)计划是由太空探索技术公司(SpaceX)提出的一个巨型低轨卫星互联网星座项目,计划在2019年至2024年间在太空搭建由约1.2万颗卫星组成的“星链”网络,其中1584颗将部署在地球上空550千米处的近地轨道,并从2020年开始工作。该卫星仍在工作。
2D轨道图
3D轨道图
轨道高度分析图
轨道倾角分析图
轨道综合分析图
查看轨道综合分析图